Location: Whelan
(46.7841°N, 117.1166°W)
Time: 11:32:18
(UTC+00:00)

Envisat - Pass Details

Date: 24 April 2024
Orbit: 762 x 764 km, 98.3° (Epoch: 26 May)

Event Time Altitude Azimuth Distance (km) Brightness Sun altitude
Rises 11:26:12 0° 12° (NNE) 3,240 7.0 -12.6°
Reaches altitude 10° 11:28:30 10° 11° (N) 2,309 6.2 -12.3°
Maximum altitude 11:33:36 78° 286° (WNW) 785 3.0 -11.5°
Drops below altitude 10° 11:38:38 10° 201° (SSW) 2,291 5.0 -10.8°
Enters shadow 11:39:09 - 201° (SSW) 2,497 5.2 -10.7°
